TimeCDT,TemperatureF,Dew PointF,Humidity,Sea Level PressureIn,VisibilityMPH,Wind Direction,Wind SpeedMPH,Gust SpeedMPH,PrecipitationIn,Events,Conditions,WindDirDegrees,DateUTC
12:53 AM,75.9,66.9,74,30.13,10.0,Calm,Calm,-,N/A,,Clear,0,2012-10-05 05:53:00
1:53 AM,77.0,69.1,76,30.13,10.0,North,3.5,-,N/A,,Clear,10,2012-10-05 06:53:00
2:53 AM,78.8,71.6,78,30.13,9.0,East,5.8,-,N/A,,Clear,80,2012-10-05 07:53:00
3:53 AM,77.0,71.1,82,30.11,7.0,ENE,5.8,-,N/A,,Clear,60,2012-10-05 08:53:00
4:53 AM,78.1,71.1,79,30.11,8.0,NE,6.9,-,N/A,,Clear,40,2012-10-05 09:53:00
5:53 AM,75.9,70.0,82,30.11,9.0,NNE,9.2,-,N/A,,Clear,30,2012-10-05 10:53:00
6:53 AM,75.9,68.0,76,30.12,9.0,NE,9.2,-,N/A,,Clear,50,2012-10-05 11:53:00
7:53 AM,75.9,68.0,76,30.13,8.0,ENE,6.9,-,N/A,,Clear,60,2012-10-05 12:53:00
8:53 AM,78.1,66.9,68,30.13,9.0,NE,6.9,-,N/A,,Clear,50,2012-10-05 13:53:00
9:53 AM,79.0,66.9,66,30.13,9.0,ENE,6.9,-,N/A,,Clear,60,2012-10-05 14:53:00
10:53 AM,81.0,68.0,65,30.12,9.0,NNE,6.9,-,N/A,,Clear,30,2012-10-05 15:53:00
11:53 AM,84.2,69.8,62,30.13,10.0,NNE,6.9,-,N/A,,Clear,30,2012-10-05 16:53:00
12:53 PM,84.9,64.9,51,30.09,10.0,NNE,6.9,-,N/A,,Clear,30,2012-10-05 17:53:00
1:53 PM,87.1,64.9,48,30.05,10.0,NNE,6.9,-,N/A,,Clear,30,2012-10-05 18:53:00
2:53 PM,87.1,64.0,46,30.03,10.0,NNE,5.8,-,N/A,,Clear,20,2012-10-05 19:53:00
3:53 PM,88.0,66.0,48,30.01,10.0,North,4.6,-,N/A,,Clear,360,2012-10-05 20:53:00
4:53 PM,87.1,64.9,48,30.00,10.0,North,3.5,-,N/A,,Clear,10,2012-10-05 21:53:00
5:53 PM,86.0,60.1,41,30.00,10.0,NNE,3.5,-,N/A,,Clear,30,2012-10-05 22:53:00
6:53 PM,84.0,62.1,47,30.00,10.0,Calm,Calm,-,N/A,,Clear,0,2012-10-05 23:53:00
7:53 PM,80.1,64.9,60,30.00,10.0,SE,4.6,-,N/A,,Clear,140,2012-10-06 00:53:00
8:53 PM,80.1,66.0,62,30.01,10.0,SE,3.5,-,N/A,,Clear,140,2012-10-06 01:53:00
9:53 PM,78.1,66.0,66,30.01,10.0,South,3.5,-,N/A,,Clear,170,2012-10-06 02:53:00
10:53 PM,77.0,66.0,69,30.01,10.0,South,3.5,-,N/A,,Clear,190,2012-10-06 03:53:00
11:53 PM,75.9,66.9,74,30.01,9.0,Calm,Calm,-,N/A,,Clear,0,2012-10-06 04:53:00